Driggs, ID

6:36 AM MDT on May 27, 2017 (GMT -0600)
Driggs

Weather History for KDIJ - April, 2014

Change the Weather History Date:

Thursday, April 10, 2014

  Actual Average (KJAC) Record (KJAC)
Temperature  
Mean Temperature 40 °F -  
Max Temperature 52 °F 45 °F 71 °F (2012)
Min Temperature 27 °F 19 °F 1 °F (1978)
Degree Days  
Heating Degree Days 26    
Moisture  
Dew Point 25 °F    
Average Humidity 56    
Maximum Humidity 81    
Minimum Humidity 32    
Precipitation  
Precipitation 0.00 in - - ()
Sea Level Pressure  
Sea Level Pressure 29.98 in    
Wind  
Wind Speed 8 mph (South)    
Max Wind Speed 15 mph    
Max Gust Speed 20 mph    
Visibility 10 miles    
Events      
Averages and records for this station are not official NWS values.
T = Trace of Precipitation, MM = Missing Value Source: NWS Daily Summary

Daily Weather History Graph

Daily Weather History Graph

Search for Another Location

Airport or City:

Trip Planner

Search our weather history database for the weather conditions in past years. The results will help you decide how hot, cold, wet, or windy it might be!

Date:

Astronomy

Apr. 10, 2014 Rise Set
Actual Time 6:49 AM MDT 8:02 PM MDT
Civil Twilight 6:20 AM MDT 8:31 PM MDT
Nautical Twilight 5:45 AM MDT 9:07 PM MDT
Astronomical Twilight 5:07 AM MDT 9:44 PM MDT
Moon 3:41 PM MDT (4/10) 4:23 AM MDT (4/10)
Length of Visible Light 14h 11m
Length of Day
13h 12m
Waxing Gibbous, 80% of the Moon is Illuminated
Apr 10
Waxing Gibbous
Apr 15
Full
Apr 22
Last Quarter
Apr 29
New
May 6
First Quarter

Hourly Weather History & Observations

Time (MDT) Temp. Windchill Dew Point Humidity Pressure Visibility Wind Dir Wind Speed Gust Speed Precip Events Conditions
12:56 AM 37.9 °F 33.5 °F 24.1 °F 57% 29.93 in 10.0 mi NNW 5.8 mph - N/A   Clear
1:56 AM 36.0 °F 32.1 °F 23.0 °F 59% 29.94 in 10.0 mi East 4.6 mph - N/A   Clear
2:56 AM 30.0 °F 25.2 °F 23.0 °F 75% 29.95 in 10.0 mi ESE 4.6 mph - N/A   Clear
3:56 AM 28.0 °F 24.2 °F 23.0 °F 81% 29.95 in 10.0 mi ESE 3.5 mph - N/A   Clear
4:56 AM 27.1 °F 20.7 °F 22.1 °F 81% 29.96 in 10.0 mi ENE 5.8 mph - N/A   Clear
6:56 AM 31.1 °F 27.7 °F 25.2 °F 79% 29.95 in 10.0 mi SSE 3.5 mph - N/A   Clear
7:56 AM 32.9 °F 25.3 °F 25.2 °F 73% 29.97 in 10.0 mi SSE 9.2 mph - N/A   Clear
8:56 AM 38.8 °F 32.1 °F 27.1 °F 63% 29.96 in 9.0 mi SSE 10.4 mph - N/A   Partly Cloudy
9:56 AM 41.9 °F 34.6 °F 30.0 °F 63% 29.97 in 9.0 mi South 13.8 mph - N/A   Partly Cloudy
10:56 AM 43.0 °F 36.8 °F 31.1 °F 63% 29.99 in 9.0 mi South 11.5 mph - N/A   Partly Cloudy
11:56 AM 43.9 °F 37.9 °F 29.1 °F 56% 30.01 in 10.0 mi South 11.5 mph - N/A   Clear
12:56 PM 46.9 °F - 27.1 °F 46% 30.00 in 9.0 mi South 15.0 mph 19.6 mph N/A   Partly Cloudy
1:56 PM 48.9 °F - 26.1 °F 41% 30.01 in 9.0 mi WSW 13.8 mph - N/A   Partly Cloudy
2:56 PM 50.0 °F - 25.2 °F 38% 30.03 in 9.0 mi WSW 11.5 mph - N/A   Partly Cloudy
3:56 PM 52.0 °F - 23.0 °F 32% 30.02 in 10.0 mi WSW 9.2 mph - N/A   Clear
4:56 PM 52.9 °F - 25.2 °F 34% 30.01 in 9.0 mi SSW 11.5 mph - N/A   Clear
5:56 PM 52.9 °F - 25.2 °F 34% 29.99 in 9.0 mi SSW 10.4 mph - N/A   Clear
6:56 PM 52.0 °F - 24.1 °F 34% 29.99 in 9.0 mi SW 11.5 mph - N/A   Clear
7:56 PM 41.9 °F 37.5 °F 28.0 °F 58% 30.01 in 9.0 mi SE 6.9 mph - N/A   Clear
8:56 PM 37.9 °F 30.9 °F 26.1 °F 62% 30.02 in 10.0 mi SSE 10.4 mph - N/A   Clear
9:56 PM 41.0 °F 34.3 °F 24.1 °F 51% 30.01 in 10.0 mi SSE 11.5 mph - N/A   Clear
10:56 PM 41.0 °F 34.7 °F 24.1 °F 51% 30.00 in 10.0 mi SSE 10.4 mph - N/A   Clear
11:56 PM 39.9 °F 33.4 °F 23.0 °F 51% 29.98 in 10.0 mi SSE 10.4 mph - N/A   Clear